Hourly Weather Rucewo

Today, 13 April, Tuesday

Time Temperature Precipitation Wind Pressure Humidity
00:00 +1°C° 0 mm 3 mps 757 mmHg 85%
01:00 +1°C° 0 mm 3 mps 757 mmHg 84%
02:00 +1°C° 0 mm 3 mps 757 mmHg 83%
03:00 +1°C° 0 mm 3 mps 757 mmHg 83%
04:00 +1°C° 0 mm 3 mps 757 mmHg 82%
05:00 +2°C° 0 mm 3 mps 757 mmHg 80%
06:00 +2°C° 0 mm 3 mps 757 mmHg 77%
07:00 +2°C° 0 mm 3 mps 758 mmHg 74%
08:00 +4°C° 0 mm 3 mps 758 mmHg 67%
09:00 +5°C° 0 mm 3 mps 758 mmHg 60%
10:00 +6°C° 0 mm 4 mps 758 mmHg 53%
11:00 +6°C° 0 mm 4 mps 757 mmHg 49%
12:00 +7°C° 0 mm 4 mps 757 mmHg 45%
13:00 +7°C° 0 mm 4 mps 757 mmHg 42%
14:00 +7°C° 0 mm 4 mps 757 mmHg 43%
15:00 +7°C° 0 mm 4 mps 757 mmHg 44%
16:00 +8°C° 0 mm 3 mps 757 mmHg 45%
17:00 +5°C° 0 mm 3 mps 757 mmHg 54%
18:00 +4°C° 0 mm 3 mps 757 mmHg 63%
19:00 +3°C° 0 mm 2 mps 757 mmHg 72%
20:00 +3°C° 0 mm 2 mps 757 mmHg 75%
21:00 +3°C° 0 mm 1 mps 757 mmHg 77%
22:00 +3°C° 0 mm 1 mps 757 mmHg 80%
23:00 +3°C° 0 mm 1 mps 757 mmHg 81%

Tomorrow, 14 April, Wednesday

Time Temperature Precipitation Wind Pressure Humidity
00:00 +2°C° 0 mm 1 mps 757 mmHg 82%
01:00 +1°C° 0 mm 2 mps 756 mmHg 83%
02:00 +1°C° 0 mm 2 mps 756 mmHg 83%
03:00 +1°C° 0 mm 2 mps 756 mmHg 83%
04:00 +1°C° 0 mm 2 mps 756 mmHg 83%
05:00 +1°C° 0 mm 2 mps 756 mmHg 80%
06:00 +2°C° 0 mm 2 mps 756 mmHg 78%
07:00 +3°C° 0 mm 2 mps 756 mmHg 76%
08:00 +3°C° 0 mm 3 mps 756 mmHg 73%
09:00 +4°C° 0 mm 3 mps 756 mmHg 69%
10:00 +5°C° 0 mm 4 mps 756 mmHg 65%
11:00 +5°C° 0 mm 4 mps 756 mmHg 64%
12:00 +5°C° 0 mm 5 mps 756 mmHg 62%
13:00 +6°C° 0 mm 5 mps 755 mmHg 61%
14:00 +5°C° 0 mm 5 mps 755 mmHg 64%
15:00 +5°C° 0 mm 5 mps 756 mmHg 68%
16:00 +3°C° 0 mm 5 mps 756 mmHg 71%
17:00 +2°C° 0 mm 5 mps 756 mmHg 75%
18:00 +2°C° 0 mm 5 mps 756 mmHg 78%
19:00 +1°C° 0 mm 5 mps 756 mmHg 81%
20:00 +1°C° 0 mm 5 mps 756 mmHg 82%
21:00 +1°C° 0 mm 5 mps 756 mmHg 83%
22:00 +1°C° 0 mm 5 mps 756 mmHg 84%
23:00 0°C° 0.2 mm 5 mps 756 mmHg 88%

Day after tomorrow, 15 April, Thursday

Time Temperature Precipitation Wind Pressure Humidity
00:00 0°C° 0.2 mm 5 mps 756 mmHg 91%
01:00 0°C° 0.2 mm 5 mps 755 mmHg 94%
02:00 0°C° 0.1 mm 5 mps 755 mmHg 93%
03:00 0°C° 0.1 mm 5 mps 755 mmHg 92%
04:00 -1°C° 0.1 mm 6 mps 755 mmHg 91%
05:00 -1°C° 0.1 mm 6 mps 755 mmHg 93%
06:00 -1°C° 0.1 mm 6 mps 755 mmHg 94%
07:00 -1°C° 0.1 mm 6 mps 755 mmHg 95%
08:00 -1°C° 0.2 mm 6 mps 755 mmHg 93%
09:00 0°C° 0.2 mm 7 mps 755 mmHg 91%
10:00 0°C° 0.2 mm 7 mps 755 mmHg 88%
11:00 +1°C° 0.3 mm 6 mps 755 mmHg 91%
12:00 +1°C° 0.3 mm 6 mps 755 mmHg 93%
13:00 +1°C° 0.3 mm 6 mps 755 mmHg 95%
14:00 +1°C° 0.3 mm 6 mps 754 mmHg 93%
15:00 +2°C° 0.3 mm 6 mps 754 mmHg 92%
16:00 +2°C° 0.3 mm 5 mps 754 mmHg 90%
17:00 +2°C° 0 mm 5 mps 754 mmHg 88%
18:00 +3°C° 0 mm 5 mps 754 mmHg 87%
19:00 +3°C° 0 mm 5 mps 754 mmHg 85%
20:00 +2°C° 0 mm 5 mps 755 mmHg 89%
21:00 +2°C° 0 mm 5 mps 755 mmHg 92%
22:00 +2°C° 0 mm 5 mps 755 mmHg 95%
23:00 +1°C° 0.1 mm 5 mps 755 mmHg 95%

16 April, Friday

Time Temperature Precipitation Wind Pressure Humidity
00:00 +1°C° 0.1 mm 5 mps 754 mmHg 96%
01:00 +1°C° 0.1 mm 5 mps 754 mmHg 96%
02:00 +1°C° 0.3 mm 5 mps 754 mmHg 96%
03:00 +1°C° 0.3 mm 4 mps 754 mmHg 97%
04:00 +1°C° 0.3 mm 4 mps 754 mmHg 97%
05:00 +1°C° 0.1 mm 4 mps 754 mmHg 96%
06:00 +1°C° 0.1 mm 4 mps 754 mmHg 96%
07:00 +1°C° 0.1 mm 4 mps 754 mmHg 95%
08:00 +1°C° 0.3 mm 4 mps 754 mmHg 95%
09:00 +1°C° 0.3 mm 4 mps 754 mmHg 96%
10:00 +1°C° 0.3 mm 4 mps 754 mmHg 96%
11:00 +3°C° 0.3 mm 4 mps 754 mmHg 96%
12:00 +3°C° 0.3 mm 4 mps 754 mmHg 96%
13:00 +3°C° 0.3 mm 4 mps 754 mmHg 96%
14:00 +4°C° 0 mm 4 mps 754 mmHg 95%
15:00 +5°C° 0 mm 3 mps 754 mmHg 95%
16:00 +5°C° 0 mm 3 mps 754 mmHg 94%
17:00 +7°C° 0 mm 3 mps 755 mmHg 95%
18:00 +7°C° 0 mm 3 mps 755 mmHg 95%
19:00 +7°C° 0 mm 3 mps 755 mmHg 95%
20:00 +7°C° 0 mm 3 mps 755 mmHg 95%
21:00 +7°C° 0 mm 3 mps 755 mmHg 95%
22:00 +7°C° 0 mm 3 mps 756 mmHg 96%
23:00 +7°C° 0 mm 3 mps 756 mmHg 96%

17 April, Saturday

Time Temperature Precipitation Wind Pressure Humidity
00:00 +7°C° 0 mm 3 mps 756 mmHg 96%
01:00 +7°C° 0 mm 3 mps 756 mmHg 96%
02:00 +7°C° 0 mm 3 mps 756 mmHg 95%
03:00 +7°C° 0 mm 3 mps 756 mmHg 95%
04:00 +6°C° 0 mm 4 mps 756 mmHg 95%
05:00 +6°C° 0 mm 4 mps 756 mmHg 95%
06:00 +6°C° 0 mm 4 mps 756 mmHg 94%
07:00 +6°C° 0 mm 4 mps 757 mmHg 93%
08:00 +7°C° 0 mm 4 mps 757 mmHg 88%
09:00 +10°C° 0 mm 4 mps 757 mmHg 83%
10:00 +11°C° 0 mm 4 mps 757 mmHg 78%
11:00 +12°C° 0 mm 4 mps 757 mmHg 77%
12:00 +12°C° 0 mm 4 mps 757 mmHg 75%
13:00 +12°C° 0 mm 4 mps 757 mmHg 73%
14:00 +12°C° 0.1 mm 5 mps 757 mmHg 75%
15:00 +12°C° 0.1 mm 5 mps 757 mmHg 77%
16:00 +12°C° 0.1 mm 5 mps 757 mmHg 78%
17:00 +11°C° 0 mm 4 mps 758 mmHg 82%
18:00 +10°C° 0 mm 4 mps 758 mmHg 86%
19:00 +9°C° 0 mm 3 mps 758 mmHg 89%
20:00 +9°C° 0 mm 3 mps 758 mmHg 90%
21:00 +8°C° 0 mm 3 mps 758 mmHg 91%
22:00 +8°C° 0 mm 3 mps 758 mmHg 92%
23:00 +8°C° 0 mm 3 mps 758 mmHg 93%

18 April, Sunday

Time Temperature Precipitation Wind Pressure Humidity
00:00 +8°C° 0 mm 3 mps 758 mmHg 93%
01:00 +8°C° 0 mm 3 mps 758 mmHg 93%
02:00 +8°C° 0 mm 3 mps 758 mmHg 93%
03:00 +8°C° 0 mm 3 mps 758 mmHg 93%
04:00 +7°C° 0 mm 3 mps 758 mmHg 94%
05:00 +8°C° 0 mm 3 mps 758 mmHg 90%
06:00 +8°C° 0 mm 4 mps 758 mmHg 86%
07:00 +8°C° 0 mm 4 mps 758 mmHg 82%
08:00 +11°C° 0 mm 4 mps 758 mmHg 76%
09:00 +12°C° 0 mm 5 mps 758 mmHg 69%
10:00 +13°C° 0 mm 5 mps 758 mmHg 62%
11:00 +14°C° 0.1 mm 5 mps 758 mmHg 61%
12:00 +14°C° 0.1 mm 5 mps 758 mmHg 59%
13:00 +15°C° 0.1 mm 6 mps 758 mmHg 58%
14:00 +14°C° 0.1 mm 5 mps 758 mmHg 60%
15:00 +14°C° 0.1 mm 5 mps 757 mmHg 62%
16:00 +14°C° 0.1 mm 5 mps 757 mmHg 64%
17:00 +13°C° 0.1 mm 4 mps 758 mmHg 68%
18:00 +11°C° 0.1 mm 4 mps 758 mmHg 72%
19:00 +10°C° 0.1 mm 4 mps 758 mmHg 77%
20:00 +10°C° 0 mm 4 mps 758 mmHg 79%
21:00 +10°C° 0 mm 4 mps 758 mmHg 81%
22:00 +9°C° 0 mm 3 mps 758 mmHg 83%
23:00 +9°C° 0 mm 3 mps 758 mmHg 86%
Show more